Location: Cormont
(50.5693°N, 1.7416°E)
Time: 22:27:30
(UTC+00:00)

Cosmos 2173 Rocket - Pass Details

Date: 21 October 2019
Orbit: 944 x 1001 km, 83.0° (Epoch: 21 November)

Event Time Altitude Azimuth Distance (km) Brightness Sun altitude
Rises 19:02:55 0° 349° (N) 3,701 7.3 -21.8°
Reaches altitude 10° 19:05:27 10° 348° (NNW) 2,741 6.6 -22.2°
Maximum altitude 19:11:44 80° 264° (W) 989 4.0 -23.2°
Drops below altitude 10° 19:17:52 10° 178° (S) 2,683 6.1 -24.1°
Sets 19:20:20 0° 177° (S) 3,617 6.8 -24.5°
